FW3030 Weather Reports


Display with metric or nautical units.
time (UTC)temp
F
wind
direction
speed
MPH
gust
MPH
rain 1hr
in
rain 24hr
in
rain mn
in
humidity
%
barometer
mb
20210625133931 70 350 2.0 3.0 0.00 0.00 0.00 71 1013.1
20210625133427 69 35 2.0 3.0 0.00 0.00 0.00 71 1013.0
20210625132919 69 349 2.0 3.0 0.00 0.00 0.00 72 1013.0
20210625132415 68 349 1.0 2.0 0.00 0.00 0.00 73 1012.9
20210625131913 68 352 1.0 2.0 0.00 0.00 0.00 74 1013.0
20210625131403 67 333 1.0 2.0 0.00 0.00 0.00 75 1013.0
20210625130857 67 301 1.0 2.0 0.00 0.00 0.00 76 1013.0
20210625130351 66 328 1.0 2.0 0.00 0.00 0.00 76 1013.2
20210625125846 66 331 0.0 2.0 0.00 0.00 0.00 78 1013.0
20210625125345 65 338 1.0 2.0 0.00 0.00 0.00 78 1013.0
20210625124835 65 0 1.0 2.0 0.00 0.00 0.00 77 1013.0
20210625124331 65 0 1.0 2.0 0.00 0.00 0.00 79 1012.9
20210625123827 64 0 1.0 2.0 0.00 0.00 0.00 78 1012.9
20210625123320 64 0 1.0 2.0 0.00 0.00 0.00 79 1012.8
20210625122818 63 345 1.0 3.0 0.00 0.00 0.00 80 1012.8
20210625122305 63 336 1.0 3.0 0.00 0.00 0.00 81 1012.7
20210625121759 62 347 1.0 2.0 0.00 0.00 0.00 82 1012.7
20210625121254 62 338 1.0 2.0 0.00 0.00 0.00 83 1012.8
20210625120752 62 346 1.0 3.0 0.00 0.00 0.00 84 1012.8
20210625120246 61 340 1.0 3.0 0.00 0.00 0.00 86 1012.7
20210625115738 61 0 1.0 2.0 0.00 0.00 0.00 86 1012.8
20210625115234 60 0 1.0 2.0 0.00 0.00 0.00 87 1012.8
20210625114728 60 0 1.0 3.0 0.00 0.00 0.00 87 1012.7
20210625114223 60 0 1.0 3.0 0.00 0.00 0.00 87 1012.8
20210625113726 59 341 0.0 2.0 0.00 0.00 0.00 87 1012.6
20210625113212 59 341 1.0 2.0 0.00 0.00 0.00 88 1012.6
20210625112708 59 341 1.0 2.0 0.00 0.00 0.00 88 1012.5
20210625112202 59 341 0.0 2.0 0.00 0.00 0.00 89 1012.5
20210625111657 58 341 0.0 1.0 0.00 0.00 0.00 89 1012.6
20210625111152 58 341 0.0 1.0 0.00 0.00 0.00 89 1012.5
20210625110651 58 341 0.0 1.0 0.00 0.00 0.00 89 1012.4
20210625110147 58 341 0.0 1.0 0.00 0.00 0.00 89 1012.2
20210625105647 58 341 1.0 2.0 0.00 0.00 0.00 89 1012.1
20210625105139 58 341 1.0 2.0 0.00 0.00 0.00 89 1012.1
20210625104633 58 341 1.0 2.0 0.00 0.00 0.00 90 1012.2
20210625104119 58 341 0.0 2.0 0.00 0.00 0.00 90 1012.0
20210625103615 58 341 1.0 2.0 0.00 0.00 0.00 90 1012.0
20210625103111 58 341 0.0 1.0 0.00 0.00 0.00 90 1012.0
20210625102614 58 341 0.0 1.0 0.00 0.00 0.00 90 1012.0
20210625102059 58 341 0.0 3.0 0.00 0.00 0.00 90 1012.0
20210625101557 58 341 1.0 3.0 0.00 0.00 0.00 90 1011.9
20210625101049 58 352 1.0 2.0 0.00 0.00 0.00 90 1012.0
20210625100544 58 32 1.0 2.0 0.00 0.00 0.00 90 1012.1
20210625100054 58 32 1.0 2.0 0.00 0.00 0.00 90 1012.1
20210625095546 58 32 0.0 1.0 0.00 0.00 0.00 90 1012.3
20210625095030 58 32 0.0 0.0 0.00 0.00 0.00 89 1012.6
20210625094533 58 32 0.0 0.0 0.00 0.00 0.00 88 1012.7
20210625094023 58 32 0.0 0.0 0.00 0.00 0.00 88 1012.7
20210625093514 58 32 0.0 0.0 0.00 0.00 0.00 88 1012.8
20210625093009 58 32 0.0 0.0 0.00 0.00 0.00 87 1012.6
20210625092505 59 32 0.0 0.0 0.00 0.00 0.00 87 1012.6
20210625092000 59 32 0.0 0.0 0.00 0.00 0.00 86 1012.5
20210625091454 59 32 0.0 0.0 0.00 0.00 0.00 86 1012.6
20210625090948 59 32 0.0 0.0 0.00 0.00 0.00 86 1012.5
20210625090444 59 32 0.0 0.0 0.00 0.00 0.00 86 1012.5
20210625085939 59 32 0.0 0.0 0.00 0.00 0.00 86 1012.6
20210625085433 59 32 0.0 0.0 0.00 0.00 0.00 86 1012.6
20210625084927 59 32 0.0 0.0 0.00 0.00 0.00 87 1012.7
20210625084424 59 32 0.0 0.0 0.00 0.00 0.00 87 1012.8
20210625083917 59 32 0.0 0.0 0.00 0.01 0.00 88 1012.7
20210625083413 59 32 0.0 0.0 0.00 0.01 0.00 88 1012.8
20210625082912 59 32 0.0 0.0 0.00 0.01 0.00 87 1012.8
20210625082403 59 32 0.0 1.0 0.00 0.01 0.00 86 1012.8
20210625081858 60 32 0.0 1.0 0.00 0.01 0.00 85 1012.8
20210625081402 60 32 0.0 0.0 0.00 0.01 0.00 84 1012.9
20210625080857 60 32 0.0 0.0 0.00 0.01 0.00 83 1013.1
20210625080343 60 32 0.0 0.0 0.00 0.01 0.00 83 1013.1
20210625075837 60 32 0.0 0.0 0.00 0.01 0.00 83 1013.3
20210625075332 60 32 0.0 0.0 0.00 0.01 0.00 84 1013.3
20210625074829 60 32 0.0 0.0 0.00 0.01 0.00 84 1013.2
20210625074327 60 32 0.0 0.0 0.00 0.01 0.00 84 1013.2
20210625073817 60 32 0.0 0.0 0.00 0.01 0.00 84 1013.1
20210625073311 60 32 0.0 0.0 0.00 0.01 0.00 84 1013.1
20210625072807 60 32 0.0 0.0 0.00 0.11 0.00 85 1012.9
20210625072304 60 32 0.0 0.0 0.00 0.30 0.00 86 1012.9
20210625071756 60 32 0.0 0.0 0.00 0.31 0.00 86 1012.8
20210625071250 60 32 0.0 0.0 0.00 0.31 0.00 85 1013.0
20210625070749 60 32 0.0 0.0 0.00 0.31 0.00 85 1012.9
20210625070240 60 32 0.0 0.0 0.00 0.31 0.00 83 1012.8
20210625065736 60 32 0.0 0.0 0.00 0.31 0.00 82 1012.9
20210625065229 60 32 0.0 0.0 0.00 0.31 0.00 81 1012.8
20210625064724 60 32 0.0 0.0 0.00 0.31 0.00 82 1012.8
20210625064221 60 32 0.0 0.0 0.00 0.31 0.00 81 1012.7
20210625063715 60 32 0.0 0.0 0.00 0.31 0.00 81 1012.7
20210625063210 61 32 0.0 0.0 0.00 0.31 0.00 80 1012.8
20210625062706 61 32 0.0 0.0 0.00 0.31 0.00 79 1012.8
20210625062211 61 32 0.0 0.0 0.00 0.31 0.00 79 1012.7
20210625061655 61 32 0.0 0.0 0.00 0.31 0.00 79 1012.8
20210625061150 61 32 0.0 0.0 0.00 0.31 0.00 78 1012.9
20210625060650 61 32 0.0 0.0 0.00 0.31 0.00 78 1012.9
20210625060139 61 32 0.0 0.0 0.00 0.31 0.00 78 1012.9
20210625055639 61 32 0.0 0.0 0.00 0.31 0.00 78 1012.8
20210625055133 62 32 0.0 0.0 0.00 0.31 0.00 78 1012.9
20210625054625 62 32 0.0 0.0 0.00 0.31 0.00 76 1013.0
20210625054120 62 32 0.0 0.0 0.00 0.31 0.00 75 1013.1
20210625053615 63 32 0.0 0.0 0.00 0.31 0.00 74 1013.1
20210625053113 63 32 0.0 0.0 0.00 0.31 0.00 73 1013.1
20210625052605 63 32 0.0 0.0 0.00 0.31 0.00 73 1013.2
20210625052101 63 32 0.0 0.0 0.00 0.31 0.00 73 1013.2
20210625051554 64 32 0.0 0.0 0.00 0.31 0.00 72 1012.9
20210625051049 64 32 0.0 0.0 0.00 0.31 0.00 70 1013.1
20210625050545 64 32 0.0 0.0 0.00 0.31 0.00 71 1012.9
20210625050052 64 32 0.0 0.0 0.00 0.31 0.00 70 1012.7
20210625045540 64 32 0.0 0.0 0.00 0.31 0.31 70 1012.7
20210625045029 64 32 0.0 0.0 0.00 0.31 0.31 71 1012.6
20210625044529 64 32 0.0 0.0 0.00 0.31 0.31 70 1012.6
20210625044024 64 32 0.0 0.0 0.00 0.31 0.31 69 1012.6
20210625043513 65 32 0.0 0.0 0.00 0.31 0.31 68 1012.8
20210625043007 65 32 0.0 0.0 0.00 0.31 0.31 68 1012.8
20210625042506 65 32 0.0 0.0 0.00 0.31 0.31 68 1012.7
20210625041958 65 32 0.0 0.0 0.00 0.31 0.31 68 1012.6
20210625041440 66 32 0.0 0.0 0.00 0.31 0.31 67 1012.4
20210625040935 66 32 0.0 0.0 0.00 0.31 0.31 65 1012.3
20210625040423 67 32 0.0 0.0 0.00 0.31 0.31 63 1012.1
20210625035918 67 32 0.0 1.0 0.00 0.31 0.31 62 1011.9
20210625035415 67 32 0.0 1.0 0.00 0.31 0.31 61 1011.7
20210625034911 67 32 0.0 0.0 0.00 0.31 0.31 62 1011.6
20210625034402 68 32 0.0 0.0 0.00 0.31 0.31 60 1011.4
20210625033856 68 32 0.0 0.0 0.00 0.31 0.31 60 1011.6
20210625033351 68 32 0.0 0.0 0.00 0.31 0.31 61 1011.4
20210625032852 68 32 0.0 0.0 0.00 0.31 0.31 61 1011.3
20210625032346 68 32 0.0 0.0 0.00 0.31 0.31 60 1011.3
20210625031843 68 32 0.0 0.0 0.00 0.31 0.31 59 1011.6
20210625031336 69 32 0.0 0.0 0.00 0.31 0.31 59 1011.6
20210625030827 69 32 0.0 0.0 0.00 0.31 0.31 58 1011.6
20210625030313 69 32 0.0 0.0 0.00 0.31 0.31 58 1011.4
20210625025759 70 32 0.0 1.0 0.00 0.31 0.31 56 1011.6
20210625025249 70 32 0.0 1.0 0.00 0.31 0.31 56 1011.3
20210625024745 70 32 0.0 1.0 0.00 0.31 0.31 56 1011.3
20210625024240 70 32 0.0 0.0 0.00 0.31 0.31 56 1011.4
20210625023733 70 32 0.0 0.0 0.00 0.31 0.31 55 1011.4
20210625023228 70 32 0.0 0.0 0.00 0.31 0.31 55 1011.6
20210625022724 71 32 0.0 0.0 0.00 0.31 0.31 54 1011.4
20210625022219 71 32 0.0 0.0 0.00 0.31 0.31 54 1011.2
20210625021713 72 32 0.0 0.0 0.00 0.31 0.31 51 1011.2
20210625021202 73 32 0.0 1.0 0.00 0.31 0.31 49 1011.1
20210625020657 73 32 0.0 2.0 0.00 0.31 0.31 50 1011.1
20210625020153 73 32 1.0 2.0 0.00 0.31 0.31 49 1011.1
20210625015646 74 32 1.0 2.0 0.00 0.31 0.31 48 1011.0
20210625015142 74 32 0.0 3.0 0.00 0.31 0.31 48 1010.9
20210625014630 75 32 0.0 3.0 0.00 0.31 0.31 47 1010.8
20210625014125 75 32 1.0 3.0 0.00 0.31 0.31 46 1010.8
20210625013626 76 32 1.0 3.0 0.00 0.31 0.31 45 1010.8
20210625013115 76 15 1.0 3.0 0.00 0.31 0.31 44 1010.7
20210625012611 77 13 2.0 5.0 0.00 0.31 0.31 43 1010.7
20210625012105 77 23 2.0 5.0 0.00 0.31 0.31 42 1010.7
20210625011600 77 17 2.0 5.0 0.00 0.31 0.31 41 1010.6
20210625011055 78 18 2.0 5.0 0.00 0.31 0.31 41 1010.7
20210625010550 78 47 2.0 4.0 0.00 0.31 0.31 40 1010.7
20210625010058 78 18 2.0 4.0 0.00 0.31 0.31 41 1010.7
20210625005540 79 30 2.0 4.0 0.00 0.31 0.31 41 1010.6
20210625005035 79 34 2.0 4.0 0.00 0.31 0.31 40 1010.7
20210625004528 79 37 2.0 5.0 0.00 0.31 0.31 40 1010.8
20210625004025 80 348 2.0 5.0 0.00 0.31 0.31 39 1010.9
20210625003518 80 30 3.0 6.0 0.00 0.31 0.31 38 1010.9
20210625003025 80 12 2.0 8.0 0.00 0.31 0.31 38 1010.8
20210625002502 80 5 4.0 8.0 0.00 0.31 0.31 37 1010.7
20210625002000 80 352 3.0 6.0 0.00 0.31 0.31 38 1010.8
20210625001454 81 349 3.0 7.0 0.00 0.31 0.31 36 1010.9
20210625000947 81 352 3.0 7.0 0.00 0.31 0.31 36 1010.9
20210625000440 81 0 2.0 5.0 0.00 0.31 0.31 36 1010.8
20210624235936 81 13 2.0 4.0 0.00 0.31 0.31 37 1010.8
20210624235431 82 29 3.0 7.0 0.00 0.31 0.31 35 1010.6
20210624234931 82 325 3.0 7.0 0.00 0.31 0.31 35 1010.6
20210624234425 82 47 3.0 6.0 0.00 0.31 0.31 36 1010.5
20210624233923 82 352 3.0 7.0 0.00 0.31 0.31 36 1010.5
20210624233414 82 352 2.0 7.0 0.00 0.31 0.31 36 1010.6
20210624232910 82 0 3.0 5.0 0.00 0.31 0.31 35 1010.6
20210624232406 82 324 3.0 5.0 0.00 0.31 0.31 35 1010.6
20210624231900 82 41 3.0 6.0 0.00 0.31 0.31 36 1010.5
20210624231350 82 38 3.0 6.0 0.00 0.31 0.31 34 1010.4
20210624230849 83 345 3.0 8.0 0.00 0.31 0.31 35 1010.4
20210624230343 83 301 2.0 8.0 0.00 0.31 0.31 37 1010.3
20210624225844 83 0 3.0 8.0 0.00 0.31 0.31 34 1010.4
20210624225336 83 13 4.0 8.0 0.00 0.31 0.31 36 1010.3
20210624224836 83 44 3.0 7.0 0.00 0.31 0.31 37 1010.4
20210624224327 83 323 2.0 4.0 0.00 0.31 0.31 35 1010.4
20210624223822 83 17 2.0 7.0 0.00 0.31 0.31 36 1010.4
20210624223316 83 5 3.0 11.0 0.00 0.31 0.31 36 1010.3
20210624222809 83 30 5.0 11.0 0.00 0.31 0.31 35 1010.4
20210624222306 83 346 3.0 6.0 0.00 0.31 0.31 37 1010.3
20210624221806 83 26 2.0 5.0 0.00 0.31 0.31 34 1010.4
20210624221253 83 277 2.0 6.0 0.00 0.31 0.31 35 1010.3
20210624220755 83 279 3.0 6.0 0.00 0.31 0.31 36 1010.5
20210624220243 83 335 2.0 4.0 0.00 0.31 0.31 34 1010.4
20210624215738 83 19 2.0 7.0 0.00 0.31 0.31 33 1010.5
20210624215233 84 13 3.0 7.0 0.00 0.31 0.31 34 1010.5
20210624214728 84 315 3.0 10.0 0.00 0.31 0.31 37 1010.3
20210624214224 84 269 3.0 10.0 0.00 0.31 0.31 35 1010.3
20210624213717 84 25 3.0 10.0 0.00 0.31 0.31 35 1010.4
20210624213213 83 281 3.0 6.0 0.00 0.31 0.31 36 1010.4
20210624212708 83 297 2.0 6.0 0.00 0.31 0.31 32 1010.5
20210624212208 84 315 3.0 8.0 0.00 0.31 0.31 34 1010.3
20210624211708 84 340 2.0 8.0 0.00 0.31 0.31 32 1010.3
20210624211158 83 283 4.0 8.0 0.00 0.31 0.31 33 1010.3
20210624210653 83 268 2.0 9.0 0.00 0.31 0.31 31 1010.5
20210624210148 84 266 2.0 9.0 0.00 0.31 0.31 33 1010.5
20210624205643 84 270 2.0 7.0 0.00 0.31 0.31 30 1010.5
20210624205137 83 261 4.0 8.0 0.00 0.31 0.31 34 1010.6
20210624204634 83 37 3.0 8.0 0.00 0.31 0.31 32 1010.6
20210624204127 84 299 3.0 8.0 0.00 0.31 0.31 32 1010.6
20210624203627 84 301 2.0 6.0 0.00 0.31 0.31 35 1010.6
20210624203117 84 334 3.0 5.0 0.00 0.31 0.31 31 1010.6
20210624202614 83 319 2.0 7.0 0.00 0.31 0.31 32 1010.6
20210624202114 83 330 4.0 7.0 0.00 0.31 0.31 35 1010.5
20210624201601 83 307 3.0 9.0 0.00 0.31 0.31 36 1010.5
20210624201057 82 318 2.0 9.0 0.00 0.31 0.31 34 1010.6
20210624200553 82 344 2.0 7.0 0.00 0.31 0.31 36 1010.6
20210624200058 81 298 3.0 7.0 0.00 0.31 0.31 35 1010.6
20210624195035 80 224 3.0 8.0 0.00 0.31 0.31 35 1010.7
20210624194536 81 334 2.0 8.0 0.00 0.31 0.31 39 1010.7
20210624194031 80 271 3.0 8.0 0.00 0.31 0.31 40 1010.6
20210624193524 80 292 2.0 6.0 0.00 0.31 0.31 39 1010.8
20210624193030 80 272 2.0 9.0 0.00 0.31 0.31 42 1010.8
20210624192525 80 352 3.0 9.0 0.00 0.31 0.31 43 1010.8
20210624192014 80 316 2.0 8.0 0.00 0.31 0.31 41 1010.7
20210624191515 80 17 3.0 7.0 0.00 0.31 0.31 43 1010.8
20210624191010 81 245 2.0 7.0 0.00 0.31 0.31 39 1010.7
20210624190505 81 329 2.0 7.0 0.00 0.31 0.31 42 1010.7
20210624185959 81 351 3.0 7.0 0.00 0.31 0.31 40 1010.8
20210624185455 81 313 3.0 7.0 0.00 0.31 0.31 42 1010.8
20210624184949 81 302 2.0 9.0 0.00 0.31 0.31 43 1010.8
20210624184444 80 54 4.0 9.0 0.00 0.31 0.31 41 1011.0
20210624183938 80 336 2.0 6.0 0.00 0.31 0.31 46 1010.9
20210624183434 79 349 3.0 9.0 0.00 0.31 0.31 44 1010.9
20210624182929 80 67 4.0 13.0 0.00 0.31 0.31 45 1010.9
20210624182423 80 340 5.0 13.0 0.00 0.31 0.31 45 1011.0
20210624181918 80 266 3.0 9.0 0.00 0.31 0.31 46 1010.9
20210624181412 80 9 2.0 7.0 0.00 0.31 0.31 49 1010.9
20210624180909 80 5 3.0 7.0 0.00 0.31 0.31 45 1010.9
20210624180405 80 324 3.0 7.0 0.00 0.31 0.31 44 1010.8
20210624175857 80 308 3.0 6.0 0.00 0.31 0.31 45 1010.8
20210624175351 80 290 2.0 8.0 0.00 0.31 0.31 47 1010.7
20210624174848 79 55 5.0 9.0 0.00 0.31 0.31 46 1010.8
20210624174342 80 352 4.0 9.0 0.00 0.31 0.31 47 1010.7
20210624173840 80 264 3.0 9.0 0.00 0.31 0.31 47 1010.5
20210624173338 80 21 5.0 10.0 0.00 0.31 0.31 48 1010.6
20210624172833 79 22 5.0 10.0 0.00 0.31 0.31 48 1010.6
20210624172328 79 320 4.0 8.0 0.00 0.31 0.31 48 1010.5
20210624171823 79 352 5.0 8.0 0.00 0.31 0.31 49 1010.3
20210624171323 79 34 4.0 8.0 0.00 0.31 0.31 50 1010.3
20210624170812 79 5 4.0 8.0 0.00 0.31 0.31 50 1010.2
20210624170308 79 0 3.0 8.0 0.00 0.31 0.31 49 1010.2
20210624165804 79 5 4.0 8.0 0.00 0.31 0.31 49 1010.2
20210624165257 78 336 2.0 7.0 0.00 0.31 0.31 51 1010.2
20210624164753 78 303 4.0 7.0 0.00 0.31 0.31 53 1010.1
20210624164247 78 19 4.0 8.0 0.00 0.31 0.31 52 1010.1
20210624163743 78 312 4.0 8.0 0.00 0.31 0.31 53 1010.2
20210624163238 78 352 4.0 8.0 0.00 0.31 0.31 53 1010.2
20210624162731 77 304 3.0 8.0 0.00 0.31 0.31 57 1010.1
20210624162226 77 292 3.0 8.0 0.00 0.31 0.31 56 1010.0
20210624161734 77 350 4.0 8.0 0.00 0.31 0.31 56 1010.0
20210624161217 76 5 3.0 10.0 0.00 0.31 0.31 58 1009.9
20210624160711 76 311 4.0 10.0 0.00 0.31 0.31 58 1009.9
20210624160205 75 34 5.0 8.0 0.00 0.31 0.31 58 1010.0
20210624155700 75 306 4.0 8.0 0.00 0.31 0.31 58 1010.0
20210624155155 75 304 4.0 10.0 0.00 0.31 0.31 59 1009.9
20210624154649 75 352 4.0 10.0 0.00 0.31 0.31 60 1009.9
20210624154151 75 70 4.0 10.0 0.00 0.31 0.31 61 1009.8
20210624153646 75 275 4.0 8.0 0.00 0.31 0.31 61 1009.8
20210624153140 75 9 4.0 8.0 0.00 0.31 0.31 62 1009.8
20210624152637 75 252 3.0 7.0 0.00 0.31 0.31 62 1009.8
20210624152129 75 329 3.0 7.0 0.00 0.31 0.31 62 1009.8
20210624151635 75 272 3.0 8.0 0.00 0.31 0.31 61 1009.7
20210624151120 75 17 3.0 8.0 0.00 0.31 0.31 62 1009.7
20210624150613 74 0 2.0 9.0 0.00 0.31 0.31 64 1009.7
20210624150112 74 297 5.0 9.0 0.00 0.31 0.31 63 1009.5
20210624145604 74 347 2.0 7.0 0.00 0.31 0.31 63 1009.7
20210624145057 74 26 3.0 8.0 0.00 0.31 0.31 63 1009.5
20210624144556 73 315 4.0 9.0 0.00 0.31 0.31 64 1009.5
20210624144047 73 26 6.0 10.0 0.00 0.31 0.31 65 1009.5
20210624143543 73 313 4.0 10.0 0.00 0.31 0.31 65 1009.3
20210624143044 73 14 4.0 9.0 0.00 0.31 0.31 66 1009.2
20210624142550 72 18 4.0 9.0 0.00 0.31 0.31 67 1009.1
20210624142034 72 15 4.0 8.0 0.00 0.31 0.31 67 1009.2
20210624141527 71 334 5.0 10.0 0.00 0.31 0.31 68 1009.1
20210624141026 71 0 5.0 10.0 0.00 0.31 0.31 68 1009.0
20210624140518 71 335 3.0 11.0 0.00 0.31 0.31 70 1009.0
20210624140013 71 16 4.0 13.0 0.00 0.31 0.31 70 1009.0
20210624135513 71 28 4.0 13.0 0.00 0.31 0.31 70 1008.9
20210624135004 71 352 4.0 9.0 0.00 0.31 0.31 71 1008.8
20210624134459 70 13 3.0 9.0 0.00 0.31 0.31 72 1008.8